Location: Unspecified
(56.5167°N, 0.0000°E)
Time: 21:20:09
(UTC+02:00)

Okean 3 - Visible Passes

Search period start: 16 May 2021 00:00
Search period end: 26 May 2021 00:00
Orbit: 575 x 601 km, 82.5° (Epoch: 16 May)

Date Brightness Start Highest point End Pass type
(mag) Time Alt. Az. Time Alt. Az. Time Alt. Az.
16 May 4.9 00:44:16 16° SE 00:46:35 25° E 00:50:03 10° NNE visible
16 May 4.1 02:20:46 19° SW 02:23:35 48° WNW 02:27:42 10° N visible
17 May 4.5 00:51:44 19° SE 00:54:09 33° E 00:57:56 10° NNE visible
17 May 4.6 02:28:14 15° SW 02:31:21 36° WNW 02:35:17 10° N visible
18 May 4.0 00:59:12 20° SSE 01:01:44 44° E 01:05:46 10° NNE visible
18 May 5.0 02:35:41 11° WSW 02:39:09 28° WNW 02:42:49 10° N visible
19 May 3.6 01:06:38 21° S 01:09:21 61° E 01:13:31 10° NNE visible
19 May 5.4 02:43:39 10° WSW 02:46:58 22° WNW 02:50:17 10° N visible
19 May 5.6 23:38:31 10° ESE 23:40:28 13° E 23:42:25 10° NE visible
20 May 3.4 01:14:03 19° S 01:17:00 83° E 01:21:14 10° NNE visible
20 May 5.8 02:52:00 10° W 02:54:50 17° WNW 02:57:40 10° NNW visible
20 May 5.3 23:45:11 10° SE 23:47:57 17° E 23:50:43 10° NE visible
21 May 3.6 01:21:28 17° SSW 01:24:41 73° WNW 01:28:54 10° N visible
21 May 6.0 03:00:35 10° W 03:02:44 14° NW 03:04:52 10° NNW visible
21 May 4.9 23:52:21 11° SE 23:55:28 23° E 23:58:46 10° NE visible
22 May 4.0 01:28:51 14° SSW 01:32:24 53° WNW 01:36:32 10° N visible
22 May 6.2 03:09:44 10° WNW 03:10:39 11° NW 03:11:34 10° NW visible
22 May 4.5 23:59:44 12° SSE 00:03:01 30° E 00:06:41 10° NNE visible
23 May 4.5 01:36:13 10° SW 01:40:09 40° WNW 01:44:07 10° N visible
24 May 4.1 00:07:05 13° SSE 00:10:35 40° E 00:14:31 10° NNE visible
24 May 5.0 01:44:11 10° SW 01:47:56 30° WNW 01:51:40 10° N visible
25 May 3.7 00:14:24 12° S 00:18:11 55° E 00:22:18 10° NNE visible
25 May 5.4 01:52:19 10° WSW 01:55:44 23° WNW 01:59:09 10° N visible
